Probability
4 7 16 26 34 43 54 59 55 52 47 34 18 10 10 7 4 4 3 1 0 0 0 0 0 0 0 0 0 1 2 2 3 4 4 3 2 3
4 5 11 18 26 35 43 47 50 50 42 25 11 6 5 3 2 2 1 0 0 0 0 0 0 0 0 0 0 0 1 1 1 1 1 1 1 2
2 2 3 6 13 22 29 33 39 42 31 14 5 2 1 0 0 0 0 0 0 0 0 0 0 0 0 0 0 0 0 0 0 0 0 0 0 1
0 0 0 1 5 13 20 24 29 30 20 8 3 2 0 0 0 0 0 0 0 0 0 0 0 0 0 0 0 0 0 0 0 0 0 0 0 0
0 0 0 0 3 10 14 18 20 18 12 6 3 2 0 0 0 0 0 0 0 0 0 0 0 0 0 0 0 0 0 0 0 0 0 0 0 0
0 0 0 0 2 7 9 11 12 9 5 4 2 1 0 0 0 0 0 0 0 0 0 0 0 0 0 0 0 0 0 0 0 0 0 0 0 0
0 0 0 0 1 3 4 5 5 4 3 2 1 0 0 0 0 0 0 0 0 0 0 0 0 0 0 0 0 0 0 0 0 0 0 0 0 0
0 0 0 0 0 0 1 1 1 1 1 1 0 0 0 0 0 0 0 0 0 0 0 0 0 0 0 0 0 0 0 0 0 0 0 0 0 0
0 0 0 0 0 0 0 0 0 0 0 0 0 0 0 0 0 0 0 0 0 0 0 0 0 0 0 0 0 0 0 0 0 0 0 0 0 0
0 0 0 0 0 0 0 0 0 0 0 0 0 0 0 0 0 0 0 0 0 0 0 0 0 0 0 0 0 0 0 0 0 0 0 0 0 0
0 0 0 0 0 0 0 0 0 0 0 0 0 0 0 0 0 0 0 0 0 0 0 0 0 0 0 0 0 0 0 0 0 0 0 0 0 0
0 0 0 0 0 0 0 0 0 0 0 0 0 0 0 0 0 0 0 0 0 0 0 0 0 0 0 0 0 0 0 0 0 0 0 0 0 0
0 0 0 0 0 0 0 0 0 0 0 0 0 0 0 0 0 0 0 0 0 0 0 0 0 0 0 0 0 0 0 0 0 0 0 0 0 0
0 0 0 0 0 0 0 0 0 0 0 0 0 0 0 0 0 0 0 0 0 0 0 0 0 0 0 0 0 0 0 0 0 0 0 0 0 0
0 0 0 0 0 0 0 0 0 0 0 0 0 0 0 0 0 0 0 0 0 0 0 0 0 0 0 0 0 0 0 0 0 0 0 0 0 0
0 0 0 0 0 0 0 0 0 0 0 0 0 0 0 0 0 0 0 0 0 0 0 0 0 0 0 0 0 0 0 0 0 0 0 0 0 0
0 0 0 0 0 0 0 0 0 0 0 0 0 0 0 0 0 0 0 0 0 0 0 0 0 0 0 0 0 0 0 0 0 0 0 0 0 0
0 0 0 0 0 0 0 0 0 0 0 0 0 0 0 0 0 0 0 0 0 0 0 0 0 0 0 0 0 0 0 0 0 0 0 0 0 0
0 0 0 0 0 0 0 0 0 0 0 0 0 0 0 0 0 0 0 0 0 0 0 0 0 0 0 0 0 0 0 0 0 0 0 0 0 0
0 0 0 0 0 0 0 0 0 0 0 0 0 0 0 0 0 0 0 0 0 0 0 0 0 0 0 0 0 0 0 0 0 0 0 0 0 0
0 0 0 0 0 0 0 0 0 0 0 0 0 0 0 0 0 0 0 0 0 0 0 0 0 0 0 0 0 0 0 0 0 0 0 0 0 0
0 0 0 0 0 0 0 0 0 0 0 0 0 0 0 0 0 0 0 0 0 0 0 0 0 0 0 0 0 0 0 0 0 0 0 0 0 0
0 0 0 0 0 0 0 0 0 0 0 0 0 0 0 0 0 0 0 0 0 0 0 0 0 0 0 0 0 0 0 0 0 0 0 0 0 0
Wind_Speed
12 12 10 9 9 8 8 7 7 5 3 3 2 3 2 3 3 5 7 10 11 11 11 11 11 12 11 10 9 9 8 7 7 6 5 5 6 8
9 10 10 7 7 7 7 5 5 4 3 3 2 2 3 5 6 8 10 13 14 12 13 13 14 14 14 14 14 12 11 11 11 10 9 7 5 4
10 10 9 8 6 6 5 4 4 4 5 4 3 3 4 6 6 7 7 8 10 14 14 14 14 15 15 14 14 13 12 11 11 10 9 8 6 4
9 9 8 6 6 4 4 4 3 5 8 8 4 3 5 6 7 7 7 9 10 14 15 15 15 15 15 14 13 12 12 11 10 9 9 8 6 5
7 6 6 6 5 4 4 5 5 6 7 8 7 4 4 6 7 8 9 8 10 12 14 15 15 15 14 13 12 12 11 10 9 9 8 7 6 5
3 3 4 4 5 5 5 7 8 9 8 7 7 6 6 6 6 7 8 7 7 9 9 10 13 14 14 13 12 11 10 9 8 7 6 5 4 4
1 1 2 4 6 5 6 8 9 8 8 7 7 7 6 6 6 6 8 7 7 6 7 7 8 8 10 11 13 12 10 9 8 7 6 5 4 5
3 4 6 8 11 12 11 9 7 8 8 8 7 7 7 6 5 6 7 7 7 5 6 7 7 8 9 9 10 10 10 9 9 8 7 6 6 6
4 5 6 8 10 11 13 13 11 9 5 6 9 9 8 7 6 6 6 7 7 5 5 7 7 8 9 9 10 10 10 10 9 9 9 8 7 7
5 7 8 8 9 10 12 11 10 9 6 8 9 9 9 7 6 8 9 9 7 4 2 6 6 7 8 9 9 9 9 9 9 10 10 11 10 9
6 7 9 10 10 11 12 12 12 10 13 16 14 13 12 8 3 6 7 7 7 6 3 4 5 6 6 7 8 8 8 7 7 8 10 12 14 11
7 7 9 10 9 8 11 12 12 11 11 12 10 10 9 7 4 2 3 5 7 7 4 2 4 4 5 5 5 4 5 6 6 7 9 11 14 9
9 8 8 9 7 5 7 9 11 11 10 10 9 9 8 7 6 7 7 5 5 7 4 1 3 3 3 4 5 5 5 6 4 5 8 8 9 9
9 9 9 10 8 5 6 11 11 9 8 8 8 8 8 8 8 9 10 10 9 8 6 5 5 4 3 4 4 4 5 6 6 6 6 5 5 5
7 12 13 13 11 8 11 11 10 7 7 7 8 8 8 8 8 8 9 8 8 8 7 6 5 4 4 5 5 5 4 5 6 6 5 6 6 7
11 14 13 10 8 11 10 9 7 6 6 7 8 8 8 7 7 7 7 7 8 8 7 6 6 5 5 5 4 5 5 5 6 6 6 4 5 6
14 11 11 11 11 10 9 8 7 7 7 8 8 8 7 7 6 5 4 5 6 6 7 6 6 5 6 6 5 5 5 4 5 6 5 4 5 6
14 12 12 11 11 11 10 9 8 8 8 8 8 7 7 7 7 6 5 5 5 5 4 3 3 5 7 6 5 6 5 5 5 4 5 5 5 6
12 11 11 11 11 10 10 9 9 9 7 8 7 7 7 7 6 6 5 5 5 5 4 3 2 2 1 4 5 2 5 5 6 6 6 6 5 6
11 11 11 11 10 10 10 9 9 9 8 8 8 7 7 7 6 6 5 5 5 5 4 3 3 3 4 4 2 4 3 5 6 7 7 7 5 2
11 12 11 11 11 10 10 9 10 9 9 8 8 7 7 7 6 6 6 4 2 4 4 4 4 1 3 3 2 2 4 4 0 4 7 8 8 6
11 12 11 11 11 10 10 10 10 9 9 8 8 7 7 6 7 7 7 7 5 4 4 5 5 4 3 2 3 2 2 1 5 6 3 2 6 8
12 12 12 12 11 10 10 11 12 10 9 9 8 8 8 7 6 6 6 5 5 4 4 3 3 3 1 2 3 3 4 5 4 2 4 9 9 9
Wind_Direction
260 256 251 250 248 246 243 239 234 227 199 135 97 43 62 87 92 93 91 82 82 82 83 80 77 75 74 79 84 88 97 107 117 127 143 168 186 201
260 256 252 247 245 240 236 228 228 220 162 106 95 91 92 95 91 95 94 87 76 78 80 82 82 78 75 76 78 79 82 87 91 94 95 93 95 109
261 254 251 245 236 226 215 209 202 179 138 107 93 95 100 106 105 104 103 94 83 77 81 82 82 81 78 76 76 77 78 80 82 83 84 84 80 72
261 250 244 231 218 213 190 179 157 142 134 128 117 107 104 106 107 106 101 94 92 82 82 82 82 80 78 76 75 74 73 74 75 75 74 72 68 57
267 247 233 215 200 180 163 145 129 122 122 127 123 124 123 122 115 103 96 101 101 103 94 88 85 83 79 76 75 73 72 71 69 67 62 57 48 34
281 252 225 200 177 156 142 132 126 123 124 128 132 132 126 131 131 124 115 103 101 100 95 101 102 94 87 78 73 70 67 64 62 59 53 41 24 0
41 92 100 101 105 117 129 133 134 135 137 137 136 136 136 148 138 127 117 115 105 113 121 123 120 105 98 86 72 64 62 59 53 46 36 21 358 336
109 98 97 100 99 94 95 100 119 140 141 142 139 132 133 133 130 141 145 137 117 106 111 105 99 90 77 72 62 62 59 55 48 39 28 10 349 330
119 115 105 106 115 112 101 92 79 75 103 128 128 129 128 128 139 125 94 93 90 113 125 112 106 100 95 82 75 70 63 55 46 37 24 8 349 331
117 117 115 119 117 121 119 111 102 83 87 101 106 105 105 104 103 104 111 115 113 99 119 121 118 112 107 100 98 85 74 63 52 41 28 12 353 331
121 121 123 122 121 124 122 118 111 97 72 72 76 80 69 57 69 147 157 145 123 106 93 118 124 123 113 112 123 130 110 91 73 55 38 21 356 335
128 124 122 126 133 138 133 129 125 121 118 110 104 113 107 93 46 74 138 134 129 111 77 87 123 148 128 100 81 91 105 121 119 91 60 35 7 5
148 146 132 126 133 141 147 135 132 134 132 130 125 121 116 111 98 70 43 52 82 91 87 86 99 103 93 106 82 59 46 36 45 90 91 68 35 21
155 146 133 137 137 138 128 125 140 154 145 140 132 126 118 106 92 82 72 67 67 73 52 48 69 45 74 82 71 55 57 42 26 24 34 66 71 75
135 119 130 137 133 122 126 142 166 165 147 141 131 120 108 106 113 112 106 103 96 83 72 47 67 70 59 63 58 44 35 45 32 20 23 31 25 21
123 123 132 145 133 123 146 170 177 149 146 135 126 123 128 141 145 140 138 137 123 110 93 74 54 43 63 60 49 46 33 28 27 18 0 25 33 28
145 149 152 154 152 155 160 157 147 145 145 137 138 143 144 139 133 124 125 129 122 123 129 131 125 99 64 24 36 31 23 26 30 9 340 10 35 30
159 159 161 163 161 159 158 156 156 153 149 148 150 149 145 140 137 140 142 127 116 108 102 107 149 166 159 107 31 9 10 8 5 360 346 352 12 24
172 162 164 163 161 159 159 158 153 146 150 154 153 150 147 145 145 144 138 131 122 114 104 88 51 9 35 105 117 44 3 354 345 351 351 345 352 11
178 165 165 163 161 160 158 154 147 149 161 159 154 154 155 152 151 151 144 139 133 132 128 112 71 34 23 16 26 105 108 1 354 348 344 334 341 25
178 168 167 165 163 161 157 154 154 159 162 162 157 160 162 161 160 156 131 118 171 147 134 107 79 285 274 265 273 63 94 136 307 330 336 336 341 341
178 170 169 167 165 164 161 162 161 160 163 173 162 169 172 170 163 163 155 169 178 147 130 122 157 218 251 325 333 353 358 303 196 199 241 311 342 339
178 173 170 171 170 169 168 170 168 166 172 176 167 174 177 175 174 174 174 181 170 162 176 170 173 196 250 291 306 324 333 313 312 254 204 183 201 222